Regional Weather Roundup
Issued by NWS

Home | Current Version | Previous Version | Graphics & Text | Print | Product List | Glossary On
Versions: 1 2 3 4 5 6 7 8 9 10 11 12 13 14 15 16 17 18 19 20 21 22 23 24 25 26 27
000
ASUS45 KBOU 240607
RWRCO

WEATHER ROUNDUP FOR COLORADO
NATIONAL WEATHER SERVICE DENVER/BOULDER CO
1200 AM MDT TUE MAY 24 2016

NOTE: "FAIR" INDICATES FEW OR NO CLOUDS BELOW 12000 FEET WITH NO
SIGNIFICANT WEATHER AND/OR OBSTRUCTIONS TO VISIBILITY.

COZ001>005-013-030-031-240700-
...NORTHWEST COLORADO...

CITY           SKY/WX    TMP DP  RH WIND       PRES   REMARKS
CRAIG          FAIR      42  33  70 CALM      29.95S
HAYDEN         FAIR      43  28  56 SE8       29.96S
MEEKER         FAIR      47  32  56 E5        29.93F
MOUNT WERNER   NOT AVBL
STEAMBOAT SPGS FAIR      44  29  54 CALM      29.97S
WALDEN         FAIR      36  27  69 NE3       30.05S
$$

COZ006>008-011-240700-
...WEST CENTRAL VALLEYS...

CITY           SKY/WX    TMP DP  RH WIND       PRES   REMARKS
GRAND JUNCTION FAIR      52  25  35 E6        29.84F
MONTROSE       FAIR      51  23  33 SE12      29.92F
EAGLE          FAIR      46  27  46 CALM      29.99R
RIFLE          FAIR      47  32  56 SE5       29.90S
DELTA          FAIR      55  20  25 NE7       29.89R
NUCLA          FAIR      52  21  30 E12       29.94S
$$

COZ017>023-064>068-240700-
...SOUTHWEST COLORADO...

CITY           SKY/WX    TMP DP  RH WIND       PRES   REMARKS
DURANGO        FAIR      42  25  50 NE7       29.97S
CORTEZ         FAIR      42  24  49 CALM      29.93R
PAGOSA SPRINGS FAIR      43  26  51 CALM      30.04S
TELLURIDE      FAIR      46  17  30 SE9       30.09F
WOLF CREEK PAS FAIR      34  14  44 SW15G24   30.25F WCI  24
$$

COZ009-010-012-014-032>034-037-058>063-240700-
...CENTRAL COLORADO...

CITY           SKY/WX    TMP DP  RH WIND       PRES   REMARKS
ASPEN          FAIR      43  22  43 SW8       30.02R
BUENA VISTA    FAIR      40  22  49 W6        30.05S
COPPER MTN     NOT AVBL
BERTHOUD PASS  FAIR      30  21  69 SW9       30.23F WCI  22
COTTONWOOD PAS FAIR      46  10  23 SW8       30.13S
GUNNISON       FAIR      41  21  45 N6        30.06S
KREMMLING      FAIR      41  28  60 CALM      30.02S
LEADVILLE      FAIR      33  17  51 CALM      30.12S
MONARCH PASS   FAIR      34  14  44 MISG      30.32F
SALIDA         FAIR      48  20  33 W6        30.09S
SUNLIGHT       FAIR      37  16  41 CALM      30.17F
WILKERSON PASS FAIR      36  23  60 SW3       30.22F
$$

COZ069>075-240700-
...SAN LUIS VALLEY/SANGRE DE CRISTO MOUNTAINS...

CITY           SKY/WX    TMP DP  RH WIND       PRES   REMARKS
ALAMOSA        FAIR      41  28  60 E7        30.01S
LA VETA PASS   FAIR      45  16  31 S10G16    30.16S
SAGUACHE       FAIR      43  21  42 NW8       30.04S
$$

COZ035-036-038>040-240700-
...NORTHERN COLORADO FRONT RANGE...

CITY           SKY/WX    TMP DP  RH WIND       PRES   REMARKS
DENVER INTL AP FAIR      51  42  71 CALM      29.95S
DMNS CITY PARK   N/A     50  46  85 NE1G9     29.96R
AURORA         MOCLDY    48  43  84 SE7       29.97S
FRONT RANGE AP NOT AVBL
ERIE MUNI ARPT FAIR      47  43  87 CALM      29.95F
BOULDER MUN AP FAIR      52  45  76 SW3       29.95F
CENTENNIAL     MOCLDY    49  42  77 SW5       29.97S
BROOMFIELD     FAIR      52  43  71 W6        29.97S
FORT COLLINS   FAIR      52  43  71 CALM      29.96S
LONGMONT       FAIR      48  43  82 CALM      29.97S
$$

COZ041-046-047-076>085-087-088-240700-
...PIKES PEAK/PALMER DIVIDE AND SOUTHERN FOOTHILLS...

CITY           SKY/WX    TMP DP  RH WIND       PRES   REMARKS
COLO. SPRINGS  FAIR      54  40  59 N10       29.97S
A. F. ACADEMY  FAIR      46  39  76 N9        29.99R
SCHRIEVER AFB  NOT AVBL
ELLICOTT       FAIR     N/A N/A N/A N9        29.94S
FALCON         FAIR      50  37  59 N9        30.01R
FORT CARSON    FAIR      55  41  60 NW14      29.93S
LIMON          FAIR      50  42  74 W10       29.95R
MONUMENT HILL  FAIR      41  37  87 W6        30.03S
TRINIDAD       FAIR      53  29  39 W14       29.90F
$$

COZ042>045-048>051-090-091-240700-
...NORTHEAST COLORADO...

CITY           SKY/WX    TMP DP  RH WIND       PRES   REMARKS
GREELEY ARPT   FAIR      48  41  76 NE6       29.95S
AKRON          MOCLDY    53  44  71 E6        29.92R
BURLINGTON     FAIR      55  46  71 NE13      29.88R
WRAY           NOT AVBL
STERLING       FAIR      46  45  93 N6        29.90S
HOLYOKE        FAIR      54  46  76 NW6       29.89F
FORT MORGAN    FAIR      47  41  81 NE7       29.92S
$$

COZ086-089-092>099-240700-
...SOUTHEAST COLORADO...

CITY           SKY/WX    TMP DP  RH WIND       PRES   REMARKS
PUEBLO         FAIR      62  41  46 N16       29.86R
LA JUNTA       FAIR      64  52  64 E13       29.81R
LAMAR          FAIR      63  55  75 E8        29.77S
SPRINGFIELD      N/A     54  38  54 W5        29.81R
$$




USA.gov is the U.S. government's official web portal to all federal, state and local government web resources and services.